[Date Prev][Date Next][Thread Prev][Thread Next] - [Date Index][Thread Index][Author Index]

2 Line ISS Keps 9-29



ISS 
1 25544U 98067A   04273.18342258  .00012798  00000-0  11542-3 0  7934
2 25544  51.6364 154.9837 0009817 162.9238 340.7407 15.68522890334652
----
Via the sarex mailing list at AMSAT.ORG courtesy of AMSAT-NA.
To unsubscribe, send "unsubscribe sarex" to Majordomo@amsat.org



AMSAT Top AMSAT Home